Location: Chihuahua
(28.6330°N, 106.0830°W)
Time: 12:25:21
(UTC-07:00)

Daily predictions for brighter satellites

Satellite Brightness Start Highest point End
(mag) Time Altitude Azimuth Time Altitude Azimuth Time Altitude Azimuth
ATLAS CENTAUR R/B 3.1 19:05:18 10° SSW 19:09:26 71° ESE 19:21:04 10° NE
SPOT 3 Rocket 4.0 19:13:57 10° S 19:19:02 66° WSW 19:24:10 10° NNW
NOSS 3-2 (C) 3.6 19:15:08 10° SSW 19:20:52 76° WNW 19:27:06 10° NNE
Cosmos 2151 Rocket 3.6 19:16:46 10° N 19:21:13 88° E 19:25:36 10° S
USA 234 3.6 19:15:30 10° NE 19:21:43 45° SE 19:27:55 10° SSW
Cosmos 1864 Rocket 4.5 19:17:33 10° S 19:23:38 66° E 19:29:42 10° NNE
Cosmos 1570 Rocket 4.2 19:19:28 10° SSW 19:24:47 82° WNW 19:30:09 10° NNE
Delta 7925 Rocket 3.3 19:20:31 10° W 19:25:38 67° S 19:30:13 10° E
HJ-1C 3.4 19:22:32 10° SSE 19:25:56 90° ENE 19:29:21 10° N
Cosmos 1500 3.2 19:22:21 10° N 19:26:12 64° E 19:30:00 10° SSE
ERS-2 3.7 19:25:05 10° ESE 19:27:51 20° ENE 19:30:37 10° NNE
Cosmos 2360 4.2 19:22:55 10° NNW 19:28:38 74° ENE 19:34:19 10° SSE
Cosmos 1697 Rocket 3.4 19:23:55 10° NNW 19:29:26 56° WSW 19:34:55 10° S
CENTAUR R/B 2.5 19:27:53 10° S 19:33:20 52° ESE 19:39:26 10° NE
GPS 2-04 Rocket1 2.9 19:33:25 10° WNW 19:37:31 67° SSW 19:41:12 13° SE
Cosmos 1666 3.9 19:37:19 10° NNE 19:40:33 25° E 19:43:03 14° SE
Skynet4D Del rocket 4.3 19:36:36 10° SW 19:43:13 46° SSE 19:48:59 10° E
Cosmos 1814 Rocket 4.1 19:38:48 10° S 19:43:52 55° ESE 19:49:01 10° NNE
Cosmos 1980 Rocket 2.3 19:38:31 10° NNW 19:44:11 79° WSW 19:49:51 10° SSE
SJ-6B 2.9 19:40:38 10° S 19:44:20 73° W 19:48:03 10° NNW
Cosmos 1898 Rocket 4.3 19:43:15 10° N 19:48:07 36° ENE 19:51:54 16° SE
Resurs 1-3 3.9 19:48:16 12° SSE 19:52:05 48° ENE 19:56:18 10° N
Meteor 1-19 Rocket 4.4 19:46:35 10° S 19:52:20 58° E 19:58:07 10° NNE
Envisat 3.5 19:47:40 10° S 19:52:40 60° W 19:57:40 10° NNW
Star 37D S/N 017 3.8 19:49:40 10° W 19:52:56 74° S 19:54:17 21° E
Atlas Centaur 2 1.1 19:48:39 10° W 19:52:56 81° SSW 19:55:30 19° ESE
Cosmos 1975 3.1 19:50:15 10° N 19:54:08 48° E 19:57:09 16° SSE
GPS 2-05 Rocket1 3.4 19:55:08 10° W 19:58:20 53° NNW 20:01:37 10° ENE
Cosmos 1743 3.2 19:55:16 10° NNE 19:58:51 40° E 20:00:55 21° SE
H-2A R/B 3.9 19:57:46 11° E 19:59:20 13° ENE 20:01:33 10° NE
SJ-11-01 4.3 20:00:54 16° SSE 20:04:39 62° ENE 20:09:20 10° N
Cosmos 1975 Rocket 2.9 20:01:13 10° S 20:05:32 83° E 20:09:51 10° N
BREEZE-M DEB (TANK) 4.1 20:04:51 10° N 20:07:05 24° NE 20:08:59 18° E
Cosmos 2346 Rocket 4.4 20:02:13 10° N 20:08:24 76° E 20:14:13 11° S
Okean 1 Rocket 3.7 20:10:53 10° NNW 20:15:07 55° W 20:19:20 10° S
USA 186 3.3 20:14:04 10° SSW 20:16:59 35° W 20:20:06 10° NNW
Cosmos 1833 4.1 20:11:50 10° SSW 20:17:34 78° ESE 20:23:17 10° NNE
YAOGAN 6 3.9 20:15:13 10° S 20:18:41 39° W 20:22:09 10° NNW
ATLAS CENTAUR R/B 3.7 20:15:31 10° WNW 20:19:14 23° WSW 20:23:02 10° SSW
Cosmos 1242 Rocket 2.4 20:16:03 10° N 20:19:39 75° E 20:21:00 36° SSE
FUSE 4.1 20:15:36 10° W 20:20:46 54° S 20:23:05 31° SE
ARGOS 4.1 20:19:05 25° ESE 20:20:58 31° ENE 20:25:40 10° N
Meteor 2-4 Rocket 3.5 20:16:15 10° S 20:21:37 72° E 20:27:08 10° NNE
Cosmos 540 Rocket 3.6 20:17:34 13° S 20:21:54 51° ESE 20:26:55 10° NNE
Centaur D-1A AC-35 4.1 20:17:44 10° SW 20:25:53 23° S 20:26:45 22° SSE
Cosmos 1544 Rocket 4.2 20:24:17 10° NNE 20:28:25 37° E 20:29:02 35° E
Meteor 1-12 Rocket 4.4 20:22:30 10° N 20:28:31 84° W 20:33:07 18° S
NOAA 11 4.1 20:25:26 21° SSE 20:29:09 90° ENE 20:34:38 10° NNW
Spot 2 Rocket 3.4 20:28:00 24° SSE 20:31:04 87° WSW 20:36:08 10° NNW
Cosmos 2150 Rocket 4.4 20:26:54 10° N 20:32:00 45° ENE 20:33:32 36° ESE
Lacrosse 5 rocket 3.6 20:30:04 10° NNE 20:32:04 13° NE 20:33:08 12° ENE
SJ 16-02 3.2 20:33:03 10° NNE 20:35:37 17° ENE 20:35:37 17° ENE
Cosmos 2322 Rocket 2.1 20:31:33 10° NNW 20:37:10 85° ENE 20:39:40 35° SSE
Cosmos 1536 Rocket 3.7 20:38:24 49° ESE 20:38:59 53° E 20:43:19 10° NNE
Cosmos 1937 Rocket 3.4 20:37:30 10° NNW 20:42:39 90° ESE 20:44:33 40° SSE
Mugunghwa Rocket 4.2 20:35:56 10° W 20:42:59 78° S 20:47:19 29° E
Cosmos 841 Rocket 4.4 20:38:26 10° SSW 20:43:28 48° WNW 20:48:33 10° N
SL-16 R/B 2.3 20:42:29 10° NNW 20:48:08 71° WSW 20:50:36 34° S
Resurs 01 Rocket 3.1 20:46:02 15° SSW 20:49:02 33° W 20:52:59 10° NW
Cosmos 1340 Rocket 3.4 20:47:05 26° SSW 20:49:11 57° W 20:53:12 10° N
Delta 142 4.3 20:45:19 10° W 20:52:39 75° SSW 20:54:20 49° ESE
Cosmos 2298 Rocket 3.9 20:48:23 10° NNW 20:53:41 88° ENE 20:55:03 51° SSE
Cosmos 2219 3.7 21:02:08 42° E 21:02:08 42° E 21:06:48 10° NE
DELTA 2 R/B (1) 3.7 20:56:21 10° WSW 21:01:53 71° NNW 21:07:26 10° ENE
SL-08 RB Rocket 3.7 21:02:35 62° ENE 21:02:35 62° ENE 21:06:57 10° N
CZ-4C R/B 4.3 20:59:51 10° N 21:05:51 25° NE 21:08:19 22° ENE
USA 32 4.1 21:01:04 10° N 21:06:17 73° W 21:07:39 49° SSW
ERS-1 Rocket 3.1 21:07:39 55° ENE 21:07:39 55° ENE 21:12:29 10° N
Nadezhda 4 Rocket 4.3 21:06:00 10° N 21:12:04 47° E 21:12:19 47° E
Cosmos 1025 Rocket 4.1 21:17:06 36° NNE 21:17:06 36° NNE 21:19:50 10° NNE
Delta 7925 Rocket 4.5 21:16:02 10° W 21:18:49 29° WSW 21:18:49 29° WSW
Cosmos 2360 Rocket 2.0 21:19:52 10° NNW 21:25:32 88° WSW 21:25:42 85° S
MetOp-A 4.5 21:25:11 52° SW 21:25:57 58° WSW 21:31:13 10° NNW
Cosmos 2219 Rocket 3.7 21:23:43 10° N 21:27:26 23° NE 21:27:26 23° NE
Okean 2 4.5 21:29:32 43° NNW 21:29:32 43° NNW 21:32:28 10° N
Meteor 1-15 Rocket 4.1 21:24:35 10° N 21:30:16 87° W 21:30:19 87° WSW
SPOT 1/Viking Rocket 4.0 21:35:49 52° NNE 21:35:49 52° NNE 21:39:57 10° N
Skynet4D Del rocket 4.0 21:29:25 10° W 21:34:42 59° SW 21:34:42 59° SW
Helios 1A 4.5 21:37:36 33° N 21:37:36 33° N 21:39:57 10° N
H-2A R/B 2.5 21:38:23 50° W 21:38:23 50° W 21:43:05 10° NNW
Cosmos 1125 Rocket 4.0 21:38:18 10° NNW 21:42:26 55° N 21:42:26 55° N
COSMOS 2455 4.1 21:57:08 30° NE 21:57:08 30° NE 22:00:06 10° NNE
Terra 3.4 22:00:26 29° NNE 22:00:26 29° NNE 22:02:55 10° N
Cosmos 2333 Rocket 3.4 21:53:50 10° N 21:57:46 34° NE 21:57:46 34° NE
COSMOS 2428 3.3 21:56:25 10° NNW 22:00:42 52° N 22:00:42 52° N
SPOT 5 4.4 22:05:37 31° NW 22:05:37 31° NW 22:08:08 10° NNW
Cosmos 1634 Rocket 4.2 22:07:53 69° NNW 22:07:53 69° NNW 22:13:30 10° N
Cosmos 2297 Rocket 3.8 22:10:45 26° NE 22:10:45 26° NE 22:13:09 10° NNE
Cosmos 2227 Rocket 3.6 22:14:14 31° NNE 22:14:14 31° NNE 22:17:03 10° NNE
Lacrosse 5 rocket 3.9 22:07:33 10° NW 22:08:48 19° NW 22:08:48 19° NW
SJ 16-02 3.6 22:10:38 10° NW 22:12:38 21° WNW 22:12:38 21° WNW
Cosmos 2237 Rocket 3.8 22:20:32 10° N 22:23:44 28° NNE 22:23:44 28° NNE
CZ-4C R/B 3.4 22:47:16 10° NW 22:53:30 57° WNW 22:53:30 57° WNW
CZ-2C R/B 4.3 22:57:06 10° N 23:00:28 32° NNW 23:00:28 32° NNW
Cosmos 2219 Rocket 4.2 23:07:02 10° NW 23:09:09 21° NW 23:09:09 21° NW
SL-16 R/B 4.1 23:38:24 10° NNW 23:40:43 25° N 23:40:43 25° N
